When you browse on this site, cookies collect data to enhance your experience and personalize the content and advertising you see.
Visit our Privacy Policy to learn more. By continuing to use the site, you agree to this use of cookies and data.
  • In Schweiz
  • Länderverzeichnis
  • Für 7 Tage
  • Wassertemperatur
  • Wetterkarte
  • Widgets
  • user-avatar
    Anmelden

    Stündliche Wetter Linz

    Heute, 26 Mai, Dienstag

    Zeit Temperatur Niederschläge Wind Luftdruck Luftfeuchtigkeit
    00:00 +10°C° 0.1 mm 1 m/S 744 mmHg 92%
    01:00 +10°C° 0 mm 1 m/S 744 mmHg 94%
    02:00 +10°C° 0.2 mm 1 m/S 744 mmHg 94%
    03:00 +9°C° 0.2 mm 1 m/S 744 mmHg 93%
    04:00 +9°C° 0.2 mm 1 m/S 744 mmHg 93%
    05:00 +10°C° 0.1 mm 1 m/S 744 mmHg 91%
    06:00 +11°C° 0.1 mm 1 m/S 744 mmHg 90%
    07:00 +12°C° 0 mm 1 m/S 744 mmHg 88%
    08:00 +12°C° 0.5 mm 2 m/S 744 mmHg 86%
    09:00 +13°C° 0.5 mm 2 m/S 744 mmHg 84%
    10:00 +12°C° 0.5 mm 3 m/S 744 mmHg 82%
    11:00 +13°C° 1.1 mm 3 m/S 744 mmHg 81%
    12:00 +14°C° 1.1 mm 3 m/S 744 mmHg 80%
    13:00 +15°C° 0 mm 2 m/S 744 mmHg 78%
    14:00 +15°C° 1.5 mm 2 m/S 744 mmHg 78%
    15:00 +15°C° 1.5 mm 2 m/S 744 mmHg 78%
    16:00 +15°C° 1.5 mm 2 m/S 743 mmHg 78%
    17:00 +15°C° 0.7 mm 2 m/S 744 mmHg 80%
    18:00 +14°C° 0.7 mm 2 m/S 744 mmHg 83%
    19:00 +13°C° 0.7 mm 1 m/S 744 mmHg 85%
    20:00 +12°C° 0.1 mm 1 m/S 745 mmHg 87%
    21:00 +10°C° 0.1 mm 1 m/S 745 mmHg 89%
    22:00 +9°C° 0.1 mm 1 m/S 745 mmHg 91%
    23:00 +9°C° 0 mm 1 m/S 745 mmHg 91%

    Morgen, 27 Mai, Mittwoch

    Zeit Temperatur Niederschläge Wind Luftdruck Luftfeuchtigkeit
    00:00 +8°C° 0 mm 1 m/S 745 mmHg 91%
    01:00 +8°C° 0 mm 1 m/S 746 mmHg 92%
    02:00 +8°C° 0 mm 1 m/S 745 mmHg 92%
    03:00 +8°C° 0 mm 1 m/S 745 mmHg 92%
    04:00 +8°C° 0 mm 1 m/S 745 mmHg 92%
    05:00 +9°C° 0 mm 1 m/S 745 mmHg 90%
    06:00 +10°C° 0 mm 1 m/S 745 mmHg 87%
    07:00 +12°C° 0 mm 1 m/S 745 mmHg 85%
    08:00 +14°C° 0 mm 1 m/S 745 mmHg 77%
    09:00 +16°C° 0 mm 1 m/S 745 mmHg 70%
    10:00 +18°C° 0 mm 1 m/S 745 mmHg 62%
    11:00 +19°C° 0 mm 1 m/S 744 mmHg 58%
    12:00 +20°C° 0 mm 1 m/S 744 mmHg 53%
    13:00 +21°C° 0 mm 1 m/S 743 mmHg 49%
    14:00 +21°C° 0 mm 1 m/S 743 mmHg 50%
    15:00 +20°C° 0 mm 2 m/S 743 mmHg 51%
    16:00 +20°C° 0 mm 2 m/S 742 mmHg 52%
    17:00 +19°C° 0 mm 1 m/S 742 mmHg 60%
    18:00 +18°C° 0 mm 1 m/S 742 mmHg 67%
    19:00 +16°C° 0 mm 1 m/S 742 mmHg 74%
    20:00 +15°C° 0 mm 1 m/S 743 mmHg 76%
    21:00 +13°C° 0 mm 1 m/S 743 mmHg 77%
    22:00 +12°C° 0 mm 1 m/S 743 mmHg 78%
    23:00 +11°C° 0 mm 1 m/S 743 mmHg 80%

    übermorgen, 28 Mai, Donnerstag

    Zeit Temperatur Niederschläge Wind Luftdruck Luftfeuchtigkeit
    00:00 +11°C° 0 mm 1 m/S 743 mmHg 81%
    01:00 +10°C° 0 mm 1 m/S 743 mmHg 82%
    02:00 +10°C° 0 mm 1 m/S 742 mmHg 82%
    03:00 +10°C° 0 mm 1 m/S 742 mmHg 81%
    04:00 +10°C° 0 mm 1 m/S 742 mmHg 81%
    05:00 +11°C° 0 mm 1 m/S 742 mmHg 80%
    06:00 +12°C° 0 mm 1 m/S 741 mmHg 78%
    07:00 +13°C° 0 mm 2 m/S 741 mmHg 77%
    08:00 +13°C° 0.3 mm 2 m/S 741 mmHg 81%
    09:00 +13°C° 0.3 mm 2 m/S 741 mmHg 86%
    10:00 +13°C° 0.3 mm 2 m/S 741 mmHg 90%
    11:00 +13°C° 1 mm 2 m/S 741 mmHg 90%
    12:00 +13°C° 1 mm 2 m/S 741 mmHg 91%
    13:00 +13°C° 1 mm 1 m/S 741 mmHg 91%
    14:00 +14°C° 0.2 mm 1 m/S 741 mmHg 84%
    15:00 +15°C° 0.2 mm 1 m/S 741 mmHg 78%
    16:00 +16°C° 0.2 mm 1 m/S 741 mmHg 71%
    17:00 +15°C° 0.1 mm 1 m/S 741 mmHg 75%
    18:00 +15°C° 0.1 mm 1 m/S 741 mmHg 80%
    19:00 +14°C° 0.1 mm 1 m/S 740 mmHg 84%
    20:00 +12°C° 0 mm 1 m/S 741 mmHg 85%
    21:00 +11°C° 0 mm 1 m/S 741 mmHg 86%
    22:00 +10°C° 0 mm 1 m/S 741 mmHg 87%
    23:00 +9°C° 0 mm 1 m/S 741 mmHg 88%

    29 Mai, Freitag

    Zeit Temperatur Niederschläge Wind Luftdruck Luftfeuchtigkeit
    00:00 +9°C° 0 mm 1 m/S 741 mmHg 88%
    01:00 +9°C° 0 mm 1 m/S 741 mmHg 88%
    02:00 +8°C° 0 mm 1 m/S 741 mmHg 89%
    03:00 +8°C° 0 mm 1 m/S 740 mmHg 89%
    04:00 +8°C° 0 mm 1 m/S 740 mmHg 90%
    05:00 +9°C° 0 mm 1 m/S 740 mmHg 87%
    06:00 +10°C° 0 mm 1 m/S 740 mmHg 85%
    07:00 +12°C° 0 mm 1 m/S 740 mmHg 82%
    08:00 +13°C° 0.1 mm 1 m/S 740 mmHg 76%
    09:00 +14°C° 0.1 mm 1 m/S 740 mmHg 70%
    10:00 +16°C° 0.1 mm 2 m/S 740 mmHg 63%
    11:00 +16°C° 0.1 mm 2 m/S 739 mmHg 58%
    12:00 +17°C° 0.1 mm 2 m/S 739 mmHg 54%
    13:00 +18°C° 0.1 mm 2 m/S 739 mmHg 49%
    14:00 +18°C° 0 mm 2 m/S 738 mmHg 49%
    15:00 +18°C° 0 mm 3 m/S 738 mmHg 49%
    16:00 +18°C° 0 mm 3 m/S 738 mmHg 49%
    17:00 +16°C° 0 mm 3 m/S 738 mmHg 56%
    18:00 +15°C° 0 mm 2 m/S 738 mmHg 64%
    19:00 +13°C° 0 mm 2 m/S 738 mmHg 71%
    20:00 +12°C° 0 mm 2 m/S 738 mmHg 73%
    21:00 +10°C° 0 mm 1 m/S 739 mmHg 75%
    22:00 +9°C° 0 mm 1 m/S 739 mmHg 76%
    23:00 +8°C° 0 mm 1 m/S 739 mmHg 79%

    30 Mai, Samstag

    Zeit Temperatur Niederschläge Wind Luftdruck Luftfeuchtigkeit
    00:00 +8°C° 0 mm 1 m/S 739 mmHg 81%
    01:00 +7°C° 0 mm 1 m/S 739 mmHg 84%
    02:00 +7°C° 0 mm 1 m/S 739 mmHg 85%
    03:00 +6°C° 0 mm 1 m/S 739 mmHg 86%
    04:00 +6°C° 0 mm 1 m/S 739 mmHg 87%
    05:00 +8°C° 0 mm 1 m/S 739 mmHg 81%
    06:00 +9°C° 0 mm 1 m/S 739 mmHg 75%
    07:00 +11°C° 0 mm 1 m/S 739 mmHg 69%
    08:00 +13°C° 0 mm 1 m/S 738 mmHg 65%
    09:00 +14°C° 0 mm 1 m/S 738 mmHg 60%
    10:00 +15°C° 0 mm 2 m/S 738 mmHg 55%
    11:00 +16°C° 0 mm 2 m/S 738 mmHg 55%
    12:00 +16°C° 0 mm 1 m/S 737 mmHg 55%
    13:00 +18°C° 0 mm 1 m/S 737 mmHg 54%
    14:00 +18°C° 0 mm 1 m/S 737 mmHg 55%
    15:00 +18°C° 0 mm 1 m/S 737 mmHg 55%
    16:00 +18°C° 0 mm 1 m/S 737 mmHg 55%
    17:00 +16°C° 0.1 mm 1 m/S 737 mmHg 62%
    18:00 +15°C° 0.1 mm 1 m/S 737 mmHg 68%
    19:00 +14°C° 0.1 mm 1 m/S 736 mmHg 75%
    20:00 +13°C° 0 mm 1 m/S 737 mmHg 78%
    21:00 +12°C° 0 mm 1 m/S 737 mmHg 81%
    22:00 +11°C° 0 mm 1 m/S 738 mmHg 84%
    23:00 +10°C° 0 mm 1 m/S 738 mmHg 85%

    31 Mai, Sonntag

    Zeit Temperatur Niederschläge Wind Luftdruck Luftfeuchtigkeit
    00:00 +10°C° 0 mm 1 m/S 737 mmHg 85%
    01:00 +10°C° 0 mm 1 m/S 737 mmHg 86%
    02:00 +9°C° 0 mm 1 m/S 737 mmHg 87%
    03:00 +8°C° 0 mm 1 m/S 737 mmHg 88%
    04:00 +8°C° 0 mm 1 m/S 737 mmHg 89%
    05:00 +9°C° 0 mm 1 m/S 737 mmHg 85%
    06:00 +11°C° 0 mm 1 m/S 737 mmHg 81%
    07:00 +12°C° 0 mm 1 m/S 737 mmHg 77%
    08:00 +13°C° 0.1 mm 1 m/S 737 mmHg 72%
    09:00 +15°C° 0.1 mm 1 m/S 737 mmHg 66%
    10:00 +16°C° 0.1 mm 1 m/S 737 mmHg 61%
    11:00 +16°C° 0.1 mm 2 m/S 736 mmHg 60%
    12:00 +16°C° 0.1 mm 2 m/S 736 mmHg 60%
    13:00 +17°C° 0.1 mm 2 m/S 736 mmHg 60%
    14:00 +17°C° 0.1 mm 2 m/S 736 mmHg 61%
    15:00 +17°C° 0.1 mm 2 m/S 736 mmHg 62%
    16:00 +17°C° 0.1 mm 2 m/S 735 mmHg 62%
    17:00 +16°C° 0.2 mm 2 m/S 736 mmHg 68%
    18:00 +15°C° 0.2 mm 2 m/S 736 mmHg 74%
    19:00 +14°C° 0.2 mm 1 m/S 736 mmHg 80%
    20:00 +13°C° 0.3 mm 1 m/S 736 mmHg 83%
    21:00 +12°C° 0.3 mm 1 m/S 736 mmHg 87%
    22:00 +11°C° 0.3 mm 1 m/S 736 mmHg 91%
    23:00 +11°C° 0.5 mm 1 m/S 736 mmHg 92%
    Mehr zeigen